| time (UTC) | temp C | wind direction | speed KPH | gust KPH | rain 1hr cm | rain 24hr cm | rain mn cm | humidity % | barometer mb |
| 20260507091604 | 2 | 334 | 0.0 | 0.0 | 0.00 | 0.89 | 0.00 | 88 | 1009.8 |
| 20260507091104 | 2 | 334 | 0.0 | 0.0 | 0.00 | 0.89 | 0.00 | 88 | 1009.8 |
| 20260507090604 | 2 | 334 | 0.0 | 0.0 | 0.00 | 0.91 | 0.00 | 88 | 1009.8 |
| 20260507090105 | 2 | 334 | 0.0 | 0.0 | 0.00 | 0.91 | 0.00 | 88 | 1009.8 |
| 20260507085603 | 2 | 334 | 0.0 | 1.6 | 0.00 | 0.91 | 0.00 | 88 | 1009.8 |
| 20260507085104 | 3 | 334 | 0.0 | 1.6 | 0.00 | 0.91 | 0.00 | 88 | 1009.8 |
| 20260507084604 | 3 | 334 | 0.0 | 4.8 | 0.00 | 0.94 | 0.00 | 88 | 1009.8 |
| 20260507083604 | 3 | 334 | 0.0 | 4.8 | 0.00 | 0.94 | 0.00 | 88 | 1009.8 |
| 20260507083104 | 3 | 334 | 1.6 | 4.8 | 0.00 | 0.94 | 0.00 | 88 | 1009.8 |
| 20260507082604 | 3 | 333 | 1.6 | 4.8 | 0.00 | 0.94 | 0.00 | 88 | 1009.8 |
| 20260507082103 | 3 | 333 | 0.0 | 4.8 | 0.00 | 0.94 | 0.00 | 88 | 1009.8 |
| 20260507081604 | 3 | 333 | 0.0 | 4.8 | 0.00 | 0.94 | 0.00 | 88 | 1009.8 |
| 20260507081104 | 3 | 333 | 1.6 | 8.0 | 0.00 | 0.94 | 0.00 | 88 | 1009.8 |
| 20260507080604 | 3 | 333 | 1.6 | 8.0 | 0.00 | 0.94 | 0.00 | 88 | 1009.8 |
| 20260507080103 | 3 | 332 | 3.2 | 8.0 | 0.00 | 0.94 | 0.00 | 88 | 1009.8 |
| 20260507075103 | 3 | 329 | 1.6 | 9.7 | 0.00 | 0.94 | 0.00 | 88 | 1009.8 |
| 20260507074603 | 3 | 329 | 0.0 | 12.9 | 0.00 | 0.94 | 0.00 | 89 | 1009.8 |
| 20260507074103 | 3 | 326 | 3.2 | 12.9 | 0.00 | 0.94 | 0.00 | 88 | 1009.8 |
| 20260507073603 | 3 | 318 | 3.2 | 9.7 | 0.00 | 0.94 | 0.00 | 89 | 1009.8 |
| 20260507073104 | 3 | 338 | 3.2 | 9.7 | 0.00 | 0.94 | 0.00 | 89 | 1009.8 |
| 20260507072604 | 3 | 343 | 1.6 | 9.7 | 0.00 | 0.94 | 0.00 | 89 | 1009.8 |
| 20260507072103 | 3 | 342 | 4.8 | 12.9 | 0.00 | 0.94 | 0.00 | 89 | 1009.8 |
| 20260507071604 | 4 | 338 | 3.2 | 12.9 | 0.00 | 0.94 | 0.00 | 89 | 1009.8 |
| 20260507071104 | 4 | 336 | 3.2 | 8.0 | 0.00 | 0.94 | 0.00 | 90 | 1009.8 |
| 20260507070603 | 4 | 338 | 3.2 | 9.7 | 0.00 | 0.94 | 0.00 | 90 | 1009.8 |
| 20260507065604 | 4 | 334 | 1.6 | 9.7 | 0.00 | 0.94 | 0.00 | 90 | 1009.8 |
| 20260507065103 | 4 | 334 | 3.2 | 12.9 | 0.00 | 0.94 | 0.00 | 90 | 1009.8 |
| 20260507064604 | 4 | 358 | 8.0 | 12.9 | 0.00 | 0.94 | 0.00 | 91 | 1009.8 |
| 20260507063604 | 4 | 318 | 1.6 | 16.1 | 0.00 | 0.94 | 0.00 | 91 | 1009.8 |
| 20260507063104 | 4 | 319 | 3.2 | 16.1 | 0.00 | 0.94 | 0.00 | 91 | 1009.8 |
| 20260507061603 | 4 | 334 | 3.2 | 12.9 | 0.00 | 0.94 | 0.00 | 92 | 1009.8 |
| 20260507061104 | 4 | 315 | 3.2 | 12.9 | 0.00 | 0.94 | 0.00 | 92 | 1009.8 |
| 20260507060604 | 5 | 343 | 3.2 | 12.9 | 0.00 | 0.94 | 0.00 | 92 | 1009.8 |
| 20260507055603 | 5 | 327 | 8.0 | 16.1 | 0.00 | 0.94 | 0.00 | 92 | 1009.8 |
| 20260507055104 | 5 | 337 | 9.7 | 16.1 | 0.00 | 0.94 | 0.00 | 93 | 1009.8 |
| 20260507054604 | 5 | 340 | 3.2 | 16.1 | 0.00 | 0.94 | 0.00 | 93 | 1009.8 |
| 20260507054103 | 5 | 12 | 4.8 | 16.1 | 0.00 | 0.94 | 0.00 | 93 | 1009.8 |
| 20260507053604 | 5 | 316 | 4.8 | 14.5 | 0.00 | 0.94 | 0.00 | 93 | 1009.8 |
| 20260507053104 | 5 | 329 | 4.8 | 12.9 | 0.00 | 0.94 | 0.00 | 93 | 1009.8 |
| 20260507052603 | 5 | 346 | 3.2 | 12.9 | 0.00 | 0.94 | 0.00 | 93 | 1009.8 |
| 20260507052103 | 5 | 357 | 3.2 | 22.5 | 0.00 | 0.94 | 0.00 | 94 | 1009.8 |
| 20260507051604 | 5 | 319 | 8.0 | 22.5 | 0.00 | 0.94 | 0.00 | 93 | 1009.8 |
| 20260507051104 | 6 | 346 | 9.7 | 19.3 | 0.00 | 0.94 | 0.00 | 94 | 1009.8 |
| 20260507050604 | 6 | 13 | 6.4 | 19.3 | 0.00 | 0.94 | 0.00 | 94 | 1009.8 |
| 20260507050103 | 6 | 298 | 8.0 | 19.3 | 0.00 | 0.94 | 0.00 | 94 | 1009.8 |
| 20260507045604 | 6 | 334 | 6.4 | 19.3 | 0.00 | 0.94 | 0.00 | 94 | 1009.8 |
| 20260507045104 | 6 | 11 | 8.0 | 14.5 | 0.00 | 0.94 | 0.00 | 94 | 1009.8 |
| 20260507044603 | 6 | 320 | 8.0 | 19.3 | 0.00 | 0.94 | 0.00 | 94 | 1009.8 |
| 20260507042603 | 6 | 298 | 3.2 | 14.5 | 0.00 | 0.94 | 0.00 | 94 | 1009.8 |
| 20260507042104 | 6 | 285 | 1.6 | 12.9 | 0.00 | 0.94 | 0.00 | 94 | 1009.8 |
| 20260507040103 | 6 | 297 | 1.6 | 4.8 | 0.00 | 0.94 | 0.00 | 94 | 1009.8 |
| 20260507035604 | 6 | 307 | 1.6 | 4.8 | 0.00 | 0.94 | 0.94 | 94 | 1009.8 |
| 20260507035104 | 6 | 276 | 1.6 | 4.8 | 0.00 | 0.94 | 0.94 | 94 | 1009.8 |
| 20260507034604 | 6 | 275 | 1.6 | 4.8 | 0.00 | 0.94 | 0.94 | 94 | 1009.8 |
| 20260507033604 | 6 | 275 | 0.0 | 3.2 | 0.00 | 0.94 | 0.94 | 94 | 1009.8 |
| 20260507033104 | 6 | 275 | 1.6 | 3.2 | 0.00 | 0.94 | 0.94 | 94 | 1010.1 |
| 20260507032605 | 6 | 275 | 0.0 | 3.2 | 0.03 | 0.94 | 0.94 | 94 | 1010.1 |
| 20260507032105 | 7 | 275 | 0.0 | 3.2 | 0.03 | 0.94 | 0.94 | 94 | 1010.1 |
| 20260507031604 | 7 | 275 | 0.0 | 9.7 | 0.03 | 0.94 | 0.94 | 94 | 1010.1 |
| 20260507031105 | 7 | 275 | 1.6 | 9.7 | 0.03 | 0.94 | 0.94 | 94 | 1010.1 |
| 20260507030605 | 7 | 290 | 3.2 | 9.7 | 0.03 | 0.94 | 0.94 | 94 | 1010.1 |
| 20260507030105 | 7 | 272 | 1.6 | 11.3 | 0.03 | 0.94 | 0.94 | 94 | 1010.1 |
| 20260507025605 | 7 | 284 | 3.2 | 11.3 | 0.03 | 0.94 | 0.94 | 94 | 1010.1 |
| 20260507025105 | 6 | 265 | 1.6 | 9.7 | 0.03 | 0.94 | 0.94 | 94 | 1010.5 |
| 20260507024605 | 6 | 260 | 1.6 | 3.2 | 0.03 | 0.94 | 0.94 | 94 | 1010.5 |
| 20260507024105 | 6 | 263 | 0.0 | 4.8 | 0.03 | 0.94 | 0.94 | 94 | 1010.5 |
| 20260507023605 | 6 | 263 | 1.6 | 9.7 | 0.03 | 0.94 | 0.94 | 94 | 1010.5 |
| 20260507023104 | 6 | 263 | 3.2 | 9.7 | 0.03 | 0.94 | 0.94 | 94 | 1010.5 |
| 20260507022605 | 6 | 321 | 0.0 | 3.2 | 0.00 | 0.91 | 0.91 | 94 | 1010.5 |
| 20260507022105 | 6 | 321 | 0.0 | 1.6 | 0.00 | 0.91 | 0.91 | 94 | 1010.5 |
| 20260507021605 | 6 | 321 | 0.0 | 1.6 | 0.00 | 0.91 | 0.91 | 94 | 1010.5 |
| 20260507021105 | 6 | 321 | 0.0 | 0.0 | 0.00 | 0.91 | 0.91 | 94 | 1010.5 |
| 20260507020605 | 6 | 321 | 0.0 | 1.6 | 0.00 | 0.91 | 0.91 | 94 | 1010.5 |
| 20260507020105 | 6 | 321 | 0.0 | 1.6 | 0.00 | 0.91 | 0.91 | 94 | 1010.5 |
| 20260507015605 | 6 | 321 | 0.0 | 3.2 | 0.00 | 0.91 | 0.91 | 94 | 1010.5 |
| 20260507015105 | 6 | 321 | 0.0 | 3.2 | 0.00 | 0.91 | 0.91 | 94 | 1010.5 |
| 20260507014105 | 6 | 323 | 0.0 | 1.6 | 0.00 | 0.91 | 0.91 | 94 | 1010.5 |
| 20260507012604 | 6 | 323 | 1.6 | 4.8 | 0.00 | 0.91 | 0.91 | 93 | 1010.5 |
| 20260507012105 | 6 | 323 | 0.0 | 0.0 | 0.00 | 0.91 | 0.91 | 94 | 1010.5 |
| 20260507011605 | 6 | 323 | 0.0 | 0.0 | 0.00 | 0.91 | 0.91 | 94 | 1010.5 |
| 20260507011105 | 6 | 323 | 0.0 | 0.0 | 0.00 | 0.91 | 0.91 | 94 | 1010.5 |
| 20260507010104 | 6 | 323 | 0.0 | 1.6 | 0.00 | 0.91 | 0.91 | 94 | 1009.7 |
| 20260507005605 | 6 | 323 | 0.0 | 1.6 | 0.00 | 0.91 | 0.91 | 94 | 1009.7 |
| 20260507005105 | 6 | 323 | 0.0 | 1.6 | 0.00 | 0.91 | 0.91 | 94 | 1009.7 |
| 20260507004605 | 6 | 323 | 0.0 | 1.6 | 0.00 | 0.91 | 0.91 | 94 | 1009.7 |
| 20260507004105 | 6 | 323 | 0.0 | 0.0 | 0.00 | 0.91 | 0.91 | 94 | 1009.7 |
| 20260507003105 | 7 | 323 | 0.0 | 1.6 | 0.00 | 0.91 | 0.91 | 94 | 1009.7 |
| 20260507002604 | 7 | 323 | 0.0 | 1.6 | 0.00 | 0.91 | 0.91 | 94 | 1009.7 |
| 20260507002105 | 7 | 323 | 0.0 | 3.2 | 0.00 | 0.91 | 0.91 | 94 | 1009.7 |
| 20260507001604 | 7 | 323 | 1.6 | 3.2 | 0.00 | 0.91 | 0.91 | 94 | 1009.7 |
| 20260507001105 | 7 | 323 | 0.0 | 1.6 | 0.00 | 0.91 | 0.91 | 94 | 1009.7 |
| 20260507000605 | 7 | 323 | 0.0 | 1.6 | 0.00 | 0.91 | 0.91 | 94 | 1009.7 |
| 20260507000104 | 7 | 323 | 0.0 | 1.6 | 0.00 | 0.91 | 0.91 | 94 | 1009.7 |
| 20260506235605 | 7 | 323 | 0.0 | 0.0 | 0.00 | 0.91 | 0.91 | 94 | 1009.7 |
| 20260506235105 | 7 | 323 | 0.0 | 0.0 | 0.00 | 0.91 | 0.91 | 94 | 1009.6 |
| 20260506234605 | 7 | 323 | 0.0 | 1.6 | 0.00 | 0.91 | 0.91 | 94 | 1009.6 |
| 20260506233605 | 7 | 323 | 0.0 | 3.2 | 0.00 | 0.91 | 0.91 | 94 | 1009.2 |
| 20260506233105 | 7 | 323 | 0.0 | 4.8 | 0.00 | 0.91 | 0.91 | 94 | 1009.2 |
| 20260506232605 | 7 | 323 | 3.2 | 4.8 | 0.00 | 0.91 | 0.91 | 94 | 1009.2 |
| 20260506232104 | 7 | 323 | 1.6 | 4.8 | 0.00 | 0.91 | 0.91 | 94 | 1009.2 |
| 20260506231604 | 7 | 323 | 0.0 | 4.8 | 0.00 | 0.91 | 0.91 | 94 | 1009.2 |
| 20260506231104 | 7 | 324 | 0.0 | 3.2 | 0.00 | 0.91 | 0.91 | 94 | 1009.2 |
| 20260506230604 | 7 | 324 | 0.0 | 4.8 | 0.00 | 0.91 | 0.91 | 94 | 1007.7 |
| 20260506230104 | 7 | 324 | 0.0 | 8.0 | 0.00 | 0.91 | 0.91 | 94 | 1007.7 |
| 20260506225605 | 7 | 324 | 1.6 | 8.0 | 0.00 | 0.91 | 0.91 | 94 | 1007.7 |
| 20260506224605 | 7 | 327 | 3.2 | 8.0 | 0.00 | 0.91 | 0.91 | 94 | 1007.7 |
| 20260506224105 | 7 | 333 | 0.0 | 8.0 | 0.00 | 0.91 | 0.91 | 94 | 1007.7 |
| 20260506223605 | 7 | 333 | 3.2 | 8.0 | 0.00 | 0.91 | 0.91 | 94 | 1007.7 |
| 20260506223105 | 7 | 336 | 1.6 | 12.9 | 0.00 | 0.91 | 0.91 | 94 | 1007.7 |
| 20260506222605 | 7 | 333 | 3.2 | 16.1 | 0.00 | 0.91 | 0.91 | 94 | 1007.7 |
| 20260506222105 | 7 | 345 | 8.0 | 16.1 | 0.00 | 0.91 | 0.91 | 94 | 1007.7 |
| 20260506221104 | 7 | 337 | 4.8 | 16.1 | 0.00 | 0.91 | 0.91 | 94 | 1007.7 |
| 20260506220605 | 7 | 326 | 4.8 | 16.1 | 0.00 | 0.91 | 0.91 | 94 | 1007.7 |
| 20260506215604 | 7 | 353 | 3.2 | 16.1 | 0.00 | 0.91 | 0.91 | 94 | 1007.7 |
| 20260506215105 | 7 | 328 | 4.8 | 19.3 | 0.00 | 1.04 | 0.91 | 94 | 1007.7 |
| 20260506214605 | 7 | 321 | 9.7 | 19.3 | 0.00 | 1.35 | 0.91 | 95 | 1007.7 |
| 20260506214105 | 7 | 342 | 8.0 | 19.3 | 0.00 | 1.35 | 0.91 | 95 | 1007.7 |
| 20260506213605 | 7 | 347 | 4.8 | 19.3 | 0.00 | 1.35 | 0.91 | 95 | 1007.7 |
| 20260506213104 | 7 | 339 | 6.4 | 19.3 | 0.00 | 1.35 | 0.91 | 95 | 1007.7 |
| 20260506212605 | 7 | 344 | 8.0 | 16.1 | 0.00 | 1.35 | 0.91 | 95 | 1007.7 |
| 20260506212105 | 7 | 320 | 6.4 | 16.1 | 0.00 | 1.35 | 0.91 | 95 | 1007.7 |
| 20260506211605 | 7 | 343 | 6.4 | 16.1 | 0.00 | 1.35 | 0.91 | 95 | 1007.7 |
| 20260506210106 | 7 | 344 | 8.0 | 22.5 | 0.00 | 1.35 | 0.91 | 95 | 1007.7 |
| 20260506205604 | 7 | 345 | 8.0 | 20.9 | 0.00 | 1.35 | 0.91 | 95 | 1007.7 |
| 20260506205105 | 7 | 323 | 6.4 | 20.9 | 0.00 | 1.35 | 0.91 | 95 | 1007.7 |
| 20260506204605 | 7 | 320 | 8.0 | 16.1 | 0.00 | 1.35 | 0.91 | 95 | 1007.7 |
| 20260506204104 | 7 | 331 | 6.4 | 20.9 | 0.00 | 1.35 | 0.91 | 95 | 1007.7 |
| 20260506203605 | 7 | 348 | 12.9 | 20.9 | 0.00 | 1.35 | 0.91 | 95 | 1007.7 |
| 20260506203105 | 7 | 338 | 3.2 | 24.1 | 0.00 | 1.35 | 0.91 | 95 | 1007.7 |
| 20260506202105 | 7 | 333 | 4.8 | 19.3 | 0.00 | 1.35 | 0.91 | 95 | 1007.7 |
| 20260506201105 | 7 | 320 | 4.8 | 12.9 | 0.00 | 1.35 | 0.91 | 95 | 1007.2 |
| 20260506200605 | 7 | 334 | 4.8 | 12.9 | 0.00 | 1.35 | 0.91 | 95 | 1007.2 |
| 20260506195605 | 7 | 318 | 4.8 | 19.3 | 0.00 | 1.35 | 0.91 | 95 | 1007.2 |
| 20260506195105 | 7 | 336 | 4.8 | 19.3 | 0.00 | 1.35 | 0.91 | 95 | 1007.2 |
| 20260506194604 | 7 | 344 | 11.3 | 24.1 | 0.00 | 1.35 | 0.91 | 95 | 1007.2 |
| 20260506194105 | 7 | 358 | 9.7 | 24.1 | 0.00 | 1.35 | 0.91 | 95 | 1007.2 |
| 20260506193605 | 7 | 347 | 8.0 | 19.3 | 0.00 | 1.35 | 0.91 | 96 | 1007.2 |
| 20260506193104 | 7 | 4 | 4.8 | 19.3 | 0.00 | 1.35 | 0.91 | 95 | 1007.2 |
| 20260506192605 | 7 | 353 | 4.8 | 14.5 | 0.00 | 1.35 | 0.91 | 95 | 1007.2 |
| 20260506191605 | 7 | 357 | 6.4 | 19.3 | 0.00 | 1.37 | 0.91 | 95 | 1007.2 |
| 20260506191105 | 7 | 351 | 9.7 | 22.5 | 0.00 | 1.40 | 0.91 | 95 | 1007.2 |
| 20260506190605 | 7 | 340 | 3.2 | 22.5 | 0.03 | 1.42 | 0.91 | 95 | 1007.2 |
| 20260506185605 | 7 | 349 | 8.0 | 20.9 | 0.03 | 1.55 | 0.91 | 95 | 1007.2 |
| 20260506185105 | 7 | 329 | 6.4 | 20.9 | 0.03 | 1.60 | 0.91 | 95 | 1007.2 |
| 20260506184605 | 7 | 333 | 4.8 | 19.3 | 0.03 | 1.60 | 0.91 | 95 | 1007.2 |
| 20260506184105 | 7 | 333 | 3.2 | 19.3 | 0.03 | 1.60 | 0.91 | 95 | 1006.3 |
| 20260506183105 | 7 | 333 | 8.0 | 16.1 | 0.03 | 1.60 | 0.91 | 95 | 1006.3 |
| 20260506182605 | 7 | 320 | 4.8 | 14.5 | 0.03 | 1.60 | 0.91 | 95 | 1006.3 |
| 20260506182105 | 7 | 321 | 3.2 | 12.9 | 0.03 | 1.60 | 0.91 | 95 | 1006.3 |
| 20260506181605 | 7 | 328 | 3.2 | 14.5 | 0.03 | 1.60 | 0.91 | 95 | 1006.3 |
| 20260506181104 | 7 | 345 | 1.6 | 14.5 | 0.03 | 1.60 | 0.91 | 95 | 1006.3 |
| 20260506180604 | 7 | 343 | 8.0 | 14.5 | 0.00 | 1.57 | 0.89 | 95 | 1006.3 |
| 20260506180105 | 7 | 339 | 4.8 | 12.9 | 0.00 | 1.57 | 0.89 | 95 | 1006.3 |
| 20260506175605 | 8 | 355 | 4.8 | 11.3 | 0.00 | 1.57 | 0.89 | 95 | 1006.3 |
| 20260506175105 | 7 | 340 | 3.2 | 11.3 | 0.00 | 1.57 | 0.89 | 95 | 1006.3 |
| 20260506174604 | 7 | 334 | 3.2 | 12.9 | 0.03 | 1.57 | 0.89 | 95 | 1006.3 |
| 20260506174104 | 7 | 331 | 3.2 | 14.5 | 0.03 | 1.57 | 0.89 | 95 | 1006.3 |
| 20260506173605 | 7 | 334 | 1.6 | 14.5 | 0.03 | 1.57 | 0.89 | 95 | 1006.1 |
| 20260506173105 | 7 | 0 | 4.8 | 14.5 | 0.03 | 1.57 | 0.89 | 95 | 1006.1 |
| 20260506172604 | 7 | 331 | 4.8 | 12.9 | 0.03 | 1.57 | 0.89 | 95 | 1006.1 |
| 20260506172105 | 7 | 350 | 6.4 | 14.5 | 0.03 | 1.57 | 0.89 | 95 | 1006.1 |
| 20260506171104 | 7 | 340 | 4.8 | 16.1 | 0.03 | 1.57 | 0.89 | 95 | 1006.1 |
| 20260506170105 | 7 | 349 | 8.0 | 19.3 | 0.03 | 1.57 | 0.89 | 95 | 1006.1 |
| 20260506165605 | 7 | 345 | 8.0 | 16.1 | 0.03 | 1.57 | 0.89 | 95 | 1006.1 |
| 20260506165104 | 7 | 348 | 4.8 | 14.5 | 0.03 | 1.57 | 0.89 | 95 | 1006.1 |
| 20260506164104 | 7 | 354 | 4.8 | 16.1 | 0.00 | 1.55 | 0.86 | 95 | 1006.0 |
| 20260506163105 | 7 | 3 | 4.8 | 12.9 | 0.00 | 1.55 | 0.86 | 95 | 1006.0 |
| 20260506162105 | 7 | 350 | 4.8 | 19.3 | 0.00 | 1.55 | 0.86 | 95 | 1005.7 |
| 20260506161105 | 7 | 11 | 8.0 | 19.3 | 0.03 | 1.55 | 0.86 | 95 | 1005.7 |
| 20260506160105 | 7 | 348 | 8.0 | 16.1 | 0.03 | 1.55 | 0.86 | 95 | 1005.7 |
| 20260506155605 | 7 | 335 | 3.2 | 16.1 | 0.03 | 1.55 | 0.86 | 95 | 1005.7 |
| 20260506155105 | 7 | 339 | 6.4 | 12.9 | 0.03 | 1.55 | 0.86 | 95 | 1005.7 |
| 20260506154605 | 7 | 351 | 6.4 | 16.1 | 0.05 | 1.55 | 0.86 | 95 | 1005.7 |
| 20260506154105 | 7 | 341 | 8.0 | 16.1 | 0.05 | 1.55 | 0.86 | 95 | 1005.7 |
| 20260506153604 | 7 | 7 | 8.0 | 14.5 | 0.05 | 1.55 | 0.86 | 95 | 1005.7 |
| 20260506153105 | 7 | 344 | 4.8 | 14.5 | 0.05 | 1.55 | 0.86 | 95 | 1005.7 |
| 20260506152605 | 7 | 343 | 6.4 | 12.9 | 0.05 | 1.55 | 0.86 | 95 | 1005.7 |
| 20260506151605 | 7 | 355 | 3.2 | 8.0 | 0.05 | 1.55 | 0.86 | 95 | 1005.7 |
| 20260506150604 | 7 | 328 | 4.8 | 14.5 | 0.03 | 1.52 | 0.84 | 95 | 1005.6 |
| 20260506150104 | 7 | 321 | 4.8 | 14.5 | 0.03 | 1.52 | 0.84 | 94 | 1005.6 |
| 20260506145105 | 7 | 344 | 9.7 | 14.5 | 0.03 | 1.52 | 0.84 | 95 | 1005.6 |
| 20260506144604 | 8 | 346 | 4.8 | 12.9 | 0.00 | 1.50 | 0.81 | 94 | 1005.6 |
| 20260506144105 | 8 | 334 | 4.8 | 9.7 | 0.03 | 1.50 | 0.81 | 95 | 1005.6 |
| 20260506143605 | 8 | 332 | 3.2 | 9.7 | 0.03 | 1.50 | 0.81 | 95 | 1005.6 |
| 20260506143104 | 8 | 341 | 4.8 | 9.7 | 0.03 | 1.50 | 0.81 | 95 | 1005.6 |
| 20260506142605 | 8 | 335 | 3.2 | 9.7 | 0.05 | 1.50 | 0.81 | 95 | 1005.6 |
| 20260506142105 | 8 | 344 | 4.8 | 12.9 | 0.05 | 1.50 | 0.81 | 94 | 1005.6 |
| 20260506141604 | 8 | 343 | 4.8 | 12.9 | 0.05 | 1.50 | 0.81 | 95 | 1005.6 |
| 20260506141104 | 8 | 345 | 3.2 | 8.0 | 0.05 | 1.50 | 0.81 | 95 | 1005.6 |
| 20260506140605 | 8 | 340 | 3.2 | 8.0 | 0.10 | 1.50 | 0.81 | 94 | 1005.6 |
| 20260506135605 | 8 | 349 | 4.8 | 8.0 | 0.15 | 1.50 | 0.81 | 95 | 1005.6 |
| 20260506134605 | 9 | 354 | 4.8 | 8.0 | 0.18 | 1.50 | 0.81 | 94 | 1005.6 |
| 20260506134104 | 9 | 355 | 3.2 | 4.8 | 0.18 | 1.47 | 0.79 | 94 | 1005.6 |
| 20260506133605 | 9 | 185 | 1.6 | 4.8 | 0.23 | 1.47 | 0.79 | 95 | 1005.6 |
| 20260506133105 | 10 | 184 | 1.6 | 3.2 | 0.28 | 1.47 | 0.79 | 94 | 1005.6 |
| 20260506132604 | 10 | 184 | 0.0 | 1.6 | 0.28 | 1.45 | 0.76 | 95 | 1005.6 |
| 20260506132104 | 10 | 184 | 0.0 | 1.6 | 0.30 | 1.45 | 0.76 | 94 | 1005.6 |
| 20260506131604 | 10 | 184 | 0.0 | 4.8 | 0.33 | 1.45 | 0.76 | 95 | 1005.6 |
| 20260506131104 | 10 | 184 | 0.0 | 4.8 | 0.36 | 1.45 | 0.76 | 94 | 1005.6 |
| 20260506130104 | 11 | 184 | 0.0 | 0.0 | 0.28 | 1.37 | 0.69 | 95 | 1005.6 |
| 20260506125604 | 11 | 184 | 0.0 | 0.0 | 0.28 | 1.35 | 0.66 | 95 | 1005.6 |
| 20260506125104 | 11 | 184 | 0.0 | 0.0 | 0.28 | 1.35 | 0.66 | 95 | 1005.6 |
| 20260506124605 | 11 | 184 | 0.0 | 1.6 | 0.28 | 1.32 | 0.64 | 95 | 1005.6 |
| 20260506124105 | 11 | 184 | 0.0 | 4.8 | 0.25 | 1.30 | 0.61 | 95 | 1005.6 |
| 20260506123605 | 11 | 184 | 0.0 | 4.8 | 0.20 | 1.24 | 0.56 | 95 | 1005.6 |
| 20260506123104 | 11 | 184 | 1.6 | 4.8 | 0.15 | 1.19 | 0.51 | 95 | 1005.6 |
| 20260506122604 | 11 | 184 | 1.6 | 3.2 | 0.15 | 1.17 | 0.48 | 95 | 1005.6 |
| 20260506122104 | 11 | 184 | 0.0 | 1.6 | 0.13 | 1.14 | 0.46 | 95 | 1005.6 |
| 20260506121605 | 11 | 184 | 0.0 | 3.2 | 0.10 | 1.12 | 0.43 | 95 | 1005.6 |
| 20260506121104 | 11 | 184 | 0.0 | 3.2 | 0.10 | 1.09 | 0.41 | 95 | 1005.6 |
| 20260506120605 | 11 | 184 | 0.0 | 4.8 | 0.10 | 1.09 | 0.41 | 95 | 1005.6 |
| 20260506120105 | 11 | 184 | 0.0 | 4.8 | 0.10 | 1.09 | 0.41 | 95 | 1005.6 |
| 20260506114605 | 10 | 135 | 1.6 | 4.8 | 0.13 | 1.07 | 0.36 | 95 | 1005.6 |
| 20260506114105 | 10 | 135 | 1.6 | 4.8 | 0.15 | 1.07 | 0.36 | 95 | 1005.6 |
| 20260506113605 | 10 | 135 | 0.0 | 4.8 | 0.18 | 1.07 | 0.36 | 95 | 1005.6 |
| 20260506112604 | 10 | 134 | 1.6 | 8.0 | 0.15 | 1.04 | 0.33 | 95 | 1005.6 |
| 20260506112104 | 10 | 134 | 4.8 | 8.0 | 0.15 | 1.04 | 0.33 | 95 | 1005.6 |
| 20260506111605 | 10 | 134 | 4.8 | 8.0 | 0.18 | 1.04 | 0.33 | 95 | 1005.6 |
| 20260506111104 | 10 | 134 | 1.6 | 4.8 | 0.15 | 1.02 | 0.30 | 95 | 1005.6 |
| 20260506110604 | 10 | 134 | 1.6 | 3.2 | 0.18 | 1.02 | 0.30 | 95 | 1005.6 |
| 20260506110104 | 10 | 134 | 0.0 | 3.2 | 0.20 | 1.02 | 0.30 | 95 | 1005.6 |
| 20260506105605 | 10 | 134 | 1.6 | 3.2 | 0.18 | 0.99 | 0.28 | 95 | 1005.6 |
| 20260506105105 | 10 | 134 | 0.0 | 3.2 | 0.15 | 0.97 | 0.25 | 95 | 1005.6 |
| 20260506104605 | 9 | 134 | 0.0 | 1.6 | 0.15 | 0.94 | 0.23 | 95 | 1005.6 |
| 20260506104104 | 9 | 134 | 0.0 | 1.6 | 0.15 | 0.91 | 0.20 | 95 | 1005.6 |
| 20260506103604 | 9 | 134 | 0.0 | 1.6 | 0.13 | 0.89 | 0.18 | 94 | 1005.6 |
| 20260506103105 | 9 | 134 | 0.0 | 0.0 | 0.13 | 0.89 | 0.18 | 94 | 1005.7 |
| 20260506102604 | 9 | 134 | 0.0 | 0.0 | 0.13 | 0.89 | 0.18 | 94 | 1005.7 |
| 20260506102104 | 9 | 134 | 0.0 | 0.0 | 0.13 | 0.89 | 0.18 | 94 | 1005.7 |
| 20260506101605 | 9 | 134 | 0.0 | 0.0 | 0.10 | 0.86 | 0.15 | 94 | 1005.7 |
| 20260506101105 | 9 | 134 | 0.0 | 0.0 | 0.10 | 0.86 | 0.15 | 94 | 1005.7 |
| 20260506095604 | 9 | 134 | 0.0 | 0.0 | 0.08 | 0.81 | 0.10 | 94 | 1005.7 |
| 20260506095104 | 9 | 134 | 0.0 | 0.0 | 0.08 | 0.81 | 0.10 | 94 | 1005.7 |
| 20260506094105 | 9 | 134 | 0.0 | 0.0 | 0.05 | 0.76 | 0.05 | 94 | 1005.7 |
| 20260506093604 | 9 | 134 | 0.0 | 0.0 | 0.05 | 0.76 | 0.05 | 94 | 1005.7 |
| 20260506092104 | 9 | 134 | 0.0 | 0.0 | 0.05 | 0.76 | 0.05 | 94 | 1008.1 |